Weather in Karacharovo

Russia / Tver Oblast     56°40′55″N   36°42′00″E
temp.,
°C
wind,
m/s
gust,
m/s
humid.,
%
clouds,
%
prec.,
mm/h
press.,
hPa
HPBL,
m
28 june, tue
tue2800:00+20n38775 0.0 1019155
03:00+17ne27895 0.0 1020163
06:00+18ne38845 0.0 1022328
09:00+21ne454992 0.0 1022762
12:00+22ne453624 0.0 10231153
15:00+23nne45344 0.0 10231386
18:00+20nne444142 0.0 10231096
21:00+14ne38665 0.0 1024178
29 june, wed
wed2900:00+11ene23773 0.0 102563
03:00+10ese22840 0.0 102516
06:00+12e24700 0.0 1025127
09:00+18e33440 0.0 1024886
12:00+21e33330 0.0 10241616
15:00+23ene22310 0.0 10221907
18:00+22ene22360 0.0 10211766
21:00+15ne257313 0.0 102175
30 june, thu
thu3000:00+12ene117523 0.0 102210
03:00+10n11815 0.0 102210
06:00+13nnw127112 0.0 102285
09:00+20nnw24455 0.0 1022673
12:00+24n353457 0.0 10211730
15:00+25n353128 0.0 10202021
18:00+24nne35415 0.0 10191808
21:00+17nne22685 0.0 102011
1 july, fri
fri100:00+15nw11750 0.0 102111
03:00+13nnw11772 0.0 102111
06:00+16n12745 0.0 102283
09:00+22n23520 0.0 1021650
12:00+26n35415 0.0 10212105
15:00+28n34355 0.0 10202431
18:00+26ne24455 0.0 10191702
21:00+20sse11715 0.0 102011
2 july, sat
sat200:00+18sw2275100 0.0 102020
03:00+16wsw238099 0.0 102061
06:00+18w247452 0.0 1020120
09:00+24wnw244997 0.0 1019451
12:00+27nw343975 0.0 10181276
15:00+29wnw4533100 0.0 10172855
18:00+25nw484999 0.0 1016470
21:00+21wnw5126935 0.0 1017468